Simultaneous Nadir Overpasses (SNOs) Predictions

Prediction of SNOs between NOAA-20 and TERRA Satellite Orbit:

Table of predicted SNOs for the next 14.0 days since TLE Epoch: 12/28/2024
Index Date (NOAA-20) Time (NOAA-20) Lat,Lon (NOAA-20) SZA (NOAA-20 ) Date (TERRA) Time (TERRA) Lat,Lon (TERRA) SZA (TERRA ) Distance(km) Time Diff (sec)
1 12/30/2024 05:34:37 73.03, 87.18 96.30 12/30/2024 05:35:27 73.06, 87.15 96.32 3.24 50
2 12/30/2024 06:25:20 -72.96,-105.36 83.78 12/30/2024 06:24:50 -72.96,-105.39 83.79 1.27 30
3 01/01/2025 16:47:05 73.05, -80.98 96.14 01/01/2025 16:47:23 73.05, -80.90 96.13 2.58 18
4 01/01/2025 17:37:47 -72.93, 86.60 84.00 01/01/2025 17:36:46 -72.96, 86.58 83.96 3.04 61
5 01/04/2025 03:08:49 -73.10, -56.52 84.03 01/04/2025 03:09:59 -73.12, -56.45 84.03 2.89 70
6 01/04/2025 03:59:32 72.98, 111.06 95.83 01/04/2025 03:59:20 72.99, 110.96 95.85 3.34 12
7 01/04/2025 04:50:01 -72.19, -80.03 85.02 01/04/2025 04:48:55 -72.26, -82.71 84.81 91.33 66
8 01/06/2025 14:21:17 -73.09, 135.39 84.32 01/06/2025 14:21:55 -73.07, 135.43 84.35 2.57 38
9 01/06/2025 15:12:00 72.97, -57.04 95.55 01/06/2025 15:11:15 72.98, -57.07 95.57 1.86 45
10 01/09/2025 00:43:11 73.62, 158.77 95.96 01/09/2025 00:44:19 73.52, 160.64 95.75 60.02 68
11 01/09/2025 01:33:44 -73.04, -32.62 84.69 01/09/2025 01:33:50 -73.02, -32.68 84.70 2.86 6



Historial Predications of SNOs between NOAA-20 and TERRA
